Location: Berg
(47.2344°N, 9.5296°E)
Time: 11:56:05
(UTC+00:00)

AAUSAT CUBESAT 2 - Pass Details

Date: 28 November 2021
Orbit: 571 x 586 km, 97.5° (Epoch: 20 January)

Event Time Altitude Azimuth Distance (km) Brightness Sun altitude
Rises 03:24:37 0° 30° (NNE) 2,793 ? -33.2°
Reaches altitude 10° 03:27:38 10° 55° (NE) 1,890 ? -32.7°
Maximum altitude 03:29:59 15° 90° (E) 1,599 ? -32.3°
Drops below altitude 10° 03:32:19 10° 125° (SE) 1,885 ? -31.9°
Sets 03:35:19 0° 149° (SSE) 2,781 ? -31.4°
